Location: *
(45.9500°N, 9.0833°E)
Time: 19:36:51
(UTC+00:00)

Tiros 1 despin weight - Pass Details

Date: 30 June 2021
Orbit: 593 x 642 km, 48.2° (Epoch: 05 August)

Event Time Altitude Azimuth Distance (km) Brightness Sun altitude
Rises 01:36:52 0° 236° (SW) 2,858 - -14.9°
Reaches altitude 10° 01:39:12 10° 232° (SW) 1,948 - -14.7°
Exits shadow 01:41:04 24° 225° (SW) 1,260 ? -14.5°
Maximum altitude 01:43:35 59° 154° (SSE) 697 ? -14.3°
Drops below altitude 10° 01:47:56 10° 75° (ENE) 1,932 ? -13.9°
Sets 01:50:14 0° 71° (ENE) 2,832 ? -13.7°
